West Chatham, MA

3:49 AM EST on February 24, 2017 (GMT -0500)
Chatham Municipal

Weather History for KCQX - December, 2012

Change the Weather History Date:

Friday, December 14, 2012

  Actual Average Record
Temperature  
Mean Temperature 37 °F -  
Max Temperature 46 °F 43 °F 57 °F (2015)
Min Temperature 28 °F 30 °F 9 °F (1976)
Degree Days  
Heating Degree Days 28    
Moisture  
Dew Point 29 °F    
Average Humidity 70    
Maximum Humidity 92    
Minimum Humidity 56    
Precipitation  
Precipitation 0.00 in - - ()
Sea Level Pressure  
Sea Level Pressure 30.18 in    
Wind  
Wind Speed 4 mph (West)    
Max Wind Speed 15 mph    
Max Gust Speed 25 mph    
Visibility 10 miles    
Events      
Averages and records for this station are not official NWS values.
T = Trace of Precipitation, MM = Missing Value Source: NWS Daily Summary

Daily Weather History Graph

Daily Weather History Graph

Search for Another Location

Airport or City:

Trip Planner

Search our weather history database for the weather conditions in past years. The results will help you decide how hot, cold, wet, or windy it might be!

Date:

Astronomy

Dec. 14, 2012 Rise Set
Actual Time 6:59 AM EST 4:10 PM EST
Civil Twilight 6:28 AM EST 4:41 PM EST
Nautical Twilight 5:53 AM EST 5:16 PM EST
Astronomical Twilight 5:19 AM EST 5:50 PM EST
Moon 8:00 AM EST (12/14) 5:59 PM EST (12/14)
Length of Visible Light 10h 13m
Length of Day
9h 10m
Waxing Crescent, 3% of the Moon is Illuminated
Dec 14
Waxing Crescent
Dec 20
First Quarter
Dec 28
Full
Jan 4
Last Quarter
Jan 11
New

Hourly Weather History & Observations

Time (EST) Temp. Windchill Dew Point Humidity Pressure Visibility Wind Dir Wind Speed Gust Speed Precip Events Conditions
1:52 AM 28.0 °F - 25.0 °F 88% 30.30 in 10.0 mi Calm Calm - N/A   Clear
2:52 AM 28.9 °F - 27.0 °F 92% 30.28 in 10.0 mi Calm Calm - N/A   Clear
3:52 AM 30.9 °F 27.5 °F 28.0 °F 89% 30.27 in 10.0 mi West 3.5 mph - N/A   Partly Cloudy
4:52 AM 33.1 °F 30.0 °F 25.0 °F 72% 30.27 in 10.0 mi West 3.5 mph - N/A   Partly Cloudy
5:52 AM 32.0 °F - 26.1 °F 79% 30.26 in 10.0 mi Calm Calm - N/A   Clear
6:52 AM 30.0 °F - 25.0 °F 82% 30.25 in 10.0 mi Calm Calm - N/A   Clear
7:52 AM 33.1 °F 30.0 °F 27.0 °F 78% 30.25 in 10.0 mi West 3.5 mph - N/A   Clear
8:52 AM 39.9 °F 35.8 °F 30.0 °F 68% 30.25 in 10.0 mi West 5.8 mph - N/A   Clear
9:52 AM 43.0 °F 38.2 °F 28.9 °F 58% 30.24 in 10.0 mi WSW 8.1 mph - N/A   Clear
10:52 AM 45.0 °F 40.6 °F 34.0 °F 65% 30.20 in 10.0 mi WSW 8.1 mph - N/A   Clear
11:52 AM 46.0 °F 39.9 °F 30.9 °F 56% 30.15 in 10.0 mi WSW 13.8 mph 25.3 mph N/A   Clear
12:52 PM 46.0 °F 41.0 °F 32.0 °F 58% 30.12 in 10.0 mi WSW 10.4 mph 19.6 mph N/A   Clear
1:52 PM 46.0 °F 39.6 °F 32.0 °F 58% 30.09 in 10.0 mi WSW 15.0 mph 25.3 mph N/A   Clear
2:52 PM 45.0 °F 38.5 °F 32.0 °F 60% 30.08 in 10.0 mi WSW 13.8 mph 23.0 mph N/A   Clear
3:52 PM 44.1 °F 38.6 °F 33.1 °F 65% 30.09 in 10.0 mi WSW 10.4 mph 20.7 mph N/A   Clear
4:52 PM 42.1 °F 38.4 °F 33.1 °F 70% 30.11 in 10.0 mi West 5.8 mph - N/A   Clear
5:52 PM 41.0 °F 38.0 °F 32.0 °F 70% 30.12 in 10.0 mi West 4.6 mph - N/A   Clear
6:52 PM 39.9 °F 36.7 °F 30.0 °F 68% 30.13 in 10.0 mi WNW 4.6 mph - N/A   Clear
7:52 PM 37.9 °F 35.5 °F 28.0 °F 68% 30.14 in 10.0 mi WNW 3.5 mph - N/A   Clear
8:52 PM 42.1 °F 40.2 °F 28.9 °F 60% 30.15 in 10.0 mi Variable 3.5 mph - N/A   Clear
9:52 PM 39.9 °F - 28.9 °F 65% 30.16 in 10.0 mi Calm Calm - N/A   Clear
10:52 PM 36.0 °F - 28.0 °F 73% 30.17 in 10.0 mi Calm Calm - N/A   Clear
11:52 PM 37.9 °F 35.5 °F 28.9 °F 70% 30.15 in 10.0 mi NW 3.5 mph - N/A   Clear